Tracking 29493 objects as of 8-Sep-2024
HD Live streaming from Space Station
objects crossing your sky now

STARLINK-4725

Track STARLINK-4725 now!
10-day predictions
STARLINK-4725 is classified as:


NORAD ID: 53700
Int'l Code: 2022-107A
Perigee: 546.0 km
Apogee: 547.7 km
Inclination: 53.2 °
Period: 95.4 minutes
Semi major axis: 6917 km
RCS: Unknown
Launch date: September 5, 2022
Source: United States (US)
Launch site: AIR FORCE EASTERN TEST RANGE (AFETR)
Your satellite tracking list
Your tracking list is empty




NASA's NSSDC Master Catalog

Two Line Element Set (TLE):
1 53700U 22107A   24252.11303063  .00002300  00000-0  16256-3 0  9997
2 53700  53.2157 181.9154 0001218  96.6323 263.4808 15.08841736111445
Source of the keplerian elements: AFSPC